Location: Gro�sch�nbrunn
(49.5760°N, 11.8868°E)
Time: 13:44:36
(UTC+00:00)

Meteor 2-5 Rocket - Pass Details

Date: 18 September 2020
Orbit: 833 x 912 km, 81.2° (Epoch: 25 October)

Event Time Altitude Azimuth Distance (km) Brightness Sun altitude
Rises 18:37:27 0° 353° (N) 3,412 7.2 -13.4°
Reaches altitude 10° 18:40:06 10° 3° (N) 2,481 6.3 -13.8°
Maximum altitude 18:45:12 34° 67° (ENE) 1,381 4.4 -14.6°
Enters shadow 18:47:57 22° 115° (ESE) 1,784 4.8 -15.0°
